Location: Brahman Valley
(40.6513°N, 111.8855°W)
Time: 20:43:52
(UTC+00:00)

Vanguard 2 - Pass Details

Date: 18 May 2021
Orbit: 552 x 2937 km, 32.9° (Epoch: 14 June)

Event Time Altitude Azimuth Distance (km) Brightness Sun altitude
Rises 11:18:14 0° 231° (SW) 3,597 - -8.8°
Exits shadow 11:20:25 - 224° (SW) 2,925 9.8 -8.5°
Reaches altitude 10° 11:20:33 10° 223° (SW) 2,888 9.8 -8.5°
Maximum altitude 11:27:16 41° 155° (SSE) 2,017 9.6 -7.4°
Drops below altitude 10° 11:38:01 10° 92° (E) 4,616 12.5 -5.7°
Sets 11:42:46 0° 86° (E) 5,992 13.3 -4.9°
